When you browse on this site, cookies collect data to enhance your experience and personalize the content and advertising you see.
Visit our Privacy Policy to learn more. By continuing to use the site, you agree to this use of cookies and data.
  • în România
  • Lista ţărilor
  • Pe 7 zile
  • Temperatura apei
  • Hartă satelitară
  • Meteo pe hartă
  • Widget-uri
  • user-avatar
    Intrare

    Meteo pe oră la Camarillo

    Astăzi, 13 Decembrie, Joi

    Timp Temperatura Precipitaţii Vânt Presiune Umiditate
    00:00 +17°C° 0 mm 2 m/s 763 mmHg 33%
    01:00 +17°C° 0 mm 2 m/s 763 mmHg 31%
    02:00 +17°C° 0 mm 2 m/s 763 mmHg 30%
    03:00 +17°C° 0 mm 2 m/s 763 mmHg 30%
    04:00 +17°C° 0 mm 2 m/s 763 mmHg 29%
    05:00 +17°C° 0 mm 2 m/s 764 mmHg 29%
    06:00 +17°C° 0 mm 2 m/s 764 mmHg 29%
    07:00 +16°C° 0 mm 2 m/s 764 mmHg 29%
    08:00 +19°C° 0 mm 2 m/s 764 mmHg 27%
    09:00 +21°C° 0 mm 2 m/s 764 mmHg 25%
    10:00 +24°C° 0 mm 2 m/s 764 mmHg 24%
    11:00 +25°C° 0 mm 2 m/s 764 mmHg 22%
    12:00 +25°C° 0 mm 2 m/s 763 mmHg 21%
    13:00 +26°C° 0 mm 2 m/s 763 mmHg 19%
    14:00 +25°C° 0 mm 2 m/s 763 mmHg 22%
    15:00 +24°C° 0 mm 2 m/s 762 mmHg 24%
    16:00 +23°C° 0 mm 1 m/s 762 mmHg 26%
    17:00 +21°C° 0 mm 2 m/s 762 mmHg 27%
    18:00 +19°C° 0 mm 2 m/s 763 mmHg 27%
    19:00 +18°C° 0 mm 2 m/s 763 mmHg 27%
    20:00 +18°C° 0 mm 2 m/s 763 mmHg 26%
    21:00 +18°C° 0 mm 3 m/s 763 mmHg 25%
    22:00 +17°C° 0 mm 3 m/s 763 mmHg 24%
    23:00 +17°C° 0 mm 3 m/s 763 mmHg 23%

    Mâine, 14 Decembrie, Vineri

    Timp Temperatura Precipitaţii Vânt Presiune Umiditate
    00:00 +17°C° 0 mm 3 m/s 763 mmHg 22%
    01:00 +17°C° 0 mm 3 m/s 763 mmHg 20%
    02:00 +17°C° 0 mm 3 m/s 762 mmHg 20%
    03:00 +17°C° 0 mm 3 m/s 762 mmHg 20%
    04:00 +17°C° 0 mm 3 m/s 762 mmHg 20%
    05:00 +17°C° 0 mm 3 m/s 762 mmHg 20%
    06:00 +17°C° 0 mm 3 m/s 762 mmHg 20%
    07:00 +17°C° 0 mm 3 m/s 762 mmHg 21%
    08:00 +18°C° 0 mm 2 m/s 762 mmHg 20%
    09:00 +19°C° 0 mm 2 m/s 762 mmHg 20%
    10:00 +20°C° 0 mm 2 m/s 762 mmHg 20%
    11:00 +22°C° 0 mm 1 m/s 762 mmHg 18%
    12:00 +23°C° 0 mm 1 m/s 762 mmHg 17%
    13:00 +23°C° 0 mm 1 m/s 761 mmHg 16%
    14:00 +23°C° 0 mm 1 m/s 761 mmHg 19%
    15:00 +22°C° 0 mm 1 m/s 761 mmHg 21%
    16:00 +20°C° 0 mm 0 m/s 761 mmHg 24%
    17:00 +21°C° 0 mm 1 m/s 761 mmHg 23%
    18:00 +20°C° 0 mm 1 m/s 761 mmHg 21%
    19:00 +19°C° 0 mm 1 m/s 761 mmHg 20%
    20:00 +19°C° 0 mm 1 m/s 761 mmHg 21%
    21:00 +18°C° 0 mm 1 m/s 761 mmHg 21%
    22:00 +16°C° 0 mm 1 m/s 761 mmHg 22%
    23:00 +16°C° 0 mm 1 m/s 761 mmHg 21%

    Poimâine, 15 Decembrie, Sâmbătă

    Timp Temperatura Precipitaţii Vânt Presiune Umiditate
    00:00 +16°C° 0 mm 2 m/s 761 mmHg 21%
    01:00 +16°C° 0 mm 2 m/s 760 mmHg 20%
    02:00 +16°C° 0 mm 2 m/s 760 mmHg 21%
    03:00 +16°C° 0 mm 2 m/s 760 mmHg 21%
    04:00 +16°C° 0 mm 2 m/s 760 mmHg 22%
    05:00 +16°C° 0 mm 1 m/s 760 mmHg 22%
    06:00 +16°C° 0 mm 1 m/s 760 mmHg 23%
    07:00 +16°C° 0 mm 1 m/s 760 mmHg 24%
    08:00 +19°C° 0 mm 1 m/s 760 mmHg 22%
    09:00 +21°C° 0 mm 1 m/s 760 mmHg 21%
    10:00 +24°C° 0 mm 1 m/s 761 mmHg 20%
    11:00 +24°C° 0 mm 2 m/s 760 mmHg 20%
    12:00 +25°C° 0 mm 2 m/s 760 mmHg 20%
    13:00 +25°C° 0 mm 3 m/s 759 mmHg 20%
    14:00 +25°C° 0 mm 3 m/s 759 mmHg 23%
    15:00 +24°C° 0 mm 2 m/s 759 mmHg 27%
    16:00 +23°C° 0 mm 2 m/s 759 mmHg 30%
    17:00 +21°C° 0 mm 2 m/s 759 mmHg 30%
    18:00 +20°C° 0 mm 2 m/s 760 mmHg 31%
    19:00 +19°C° 0 mm 2 m/s 760 mmHg 31%
    20:00 +18°C° 0 mm 2 m/s 760 mmHg 30%
    21:00 +19°C° 0 mm 1 m/s 761 mmHg 29%
    22:00 +19°C° 0 mm 1 m/s 761 mmHg 28%
    23:00 +18°C° 0 mm 2 m/s 761 mmHg 27%

    16 Decembrie, Duminică

    Timp Temperatura Precipitaţii Vânt Presiune Umiditate
    00:00 +17°C° 0 mm 2 m/s 760 mmHg 27%
    01:00 +17°C° 0 mm 2 m/s 760 mmHg 27%
    02:00 +17°C° 0 mm 2 m/s 760 mmHg 26%
    03:00 +17°C° 0 mm 2 m/s 760 mmHg 26%
    04:00 +16°C° 0 mm 2 m/s 761 mmHg 26%
    05:00 +16°C° 0 mm 2 m/s 761 mmHg 25%
    06:00 +16°C° 0 mm 2 m/s 761 mmHg 25%
    07:00 +16°C° 0 mm 2 m/s 761 mmHg 25%
    08:00 +18°C° 0 mm 2 m/s 762 mmHg 23%
    09:00 +19°C° 0 mm 2 m/s 762 mmHg 21%
    10:00 +21°C° 0 mm 2 m/s 762 mmHg 19%
    11:00 +23°C° 0 mm 2 m/s 762 mmHg 19%
    12:00 +22°C° 0 mm 3 m/s 761 mmHg 20%
    13:00 +24°C° 0 mm 3 m/s 761 mmHg 21%
    14:00 +22°C° 0 mm 3 m/s 761 mmHg 23%
    15:00 +21°C° 0 mm 2 m/s 760 mmHg 26%
    16:00 +20°C° 0 mm 2 m/s 760 mmHg 28%
    17:00 +19°C° 0 mm 2 m/s 761 mmHg 33%
    18:00 +18°C° 0 mm 2 m/s 761 mmHg 38%
    19:00 +17°C° 0 mm 2 m/s 762 mmHg 43%
    20:00 +16°C° 0 mm 2 m/s 762 mmHg 47%
    21:00 +15°C° 0 mm 2 m/s 762 mmHg 50%
    22:00 +15°C° 0 mm 1 m/s 762 mmHg 54%
    23:00 +14°C° 0 mm 2 m/s 762 mmHg 55%

    17 Decembrie, Luni

    Timp Temperatura Precipitaţii Vânt Presiune Umiditate
    00:00 +14°C° 0 mm 2 m/s 762 mmHg 57%
    01:00 +14°C° 0 mm 2 m/s 761 mmHg 58%
    02:00 +14°C° 0 mm 2 m/s 761 mmHg 60%
    03:00 +13°C° 0 mm 2 m/s 761 mmHg 62%
    04:00 +13°C° 0 mm 2 m/s 761 mmHg 64%
    05:00 +12°C° 0.8 mm 3 m/s 761 mmHg 65%
    06:00 +12°C° 0.8 mm 3 m/s 761 mmHg 67%
    07:00 +13°C° 0.8 mm 3 m/s 761 mmHg 68%
    08:00 +13°C° 2 mm 3 m/s 762 mmHg 71%
    09:00 +14°C° 2 mm 2 m/s 762 mmHg 75%
    10:00 +14°C° 2 mm 2 m/s 762 mmHg 78%
    11:00 +15°C° 0.6 mm 2 m/s 762 mmHg 74%
    12:00 +16°C° 0.6 mm 2 m/s 761 mmHg 71%
    13:00 +17°C° 0.6 mm 3 m/s 761 mmHg 67%
    14:00 +17°C° 0.3 mm 3 m/s 761 mmHg 66%
    15:00 +17°C° 0.3 mm 3 m/s 761 mmHg 64%
    16:00 +17°C° 0.3 mm 3 m/s 761 mmHg 63%
    17:00 +15°C° 0 mm 4 m/s 761 mmHg 66%
    18:00 +14°C° 0 mm 4 m/s 762 mmHg 69%
    19:00 +12°C° 0 mm 5 m/s 762 mmHg 72%
    20:00 +12°C° 0 mm 4 m/s 762 mmHg 71%
    21:00 +12°C° 0 mm 4 m/s 762 mmHg 70%
    22:00 +12°C° 0 mm 4 m/s 763 mmHg 68%
    23:00 +12°C° 0 mm 3 m/s 763 mmHg 69%

    18 Decembrie, Marţi

    Timp Temperatura Precipitaţii Vânt Presiune Umiditate
    00:00 +11°C° 0 mm 3 m/s 763 mmHg 70%
    01:00 +11°C° 0 mm 3 m/s 762 mmHg 70%
    02:00 +11°C° 0 mm 3 m/s 763 mmHg 69%
    03:00 +11°C° 0 mm 3 m/s 763 mmHg 67%
    04:00 +11°C° 0 mm 3 m/s 763 mmHg 66%
    05:00 +11°C° 0 mm 3 m/s 763 mmHg 65%
    06:00 +11°C° 0 mm 3 m/s 763 mmHg 63%
    07:00 +11°C° 0 mm 3 m/s 763 mmHg 62%
    08:00 +14°C° 0 mm 2 m/s 763 mmHg 56%
    09:00 +16°C° 0 mm 2 m/s 764 mmHg 49%
    10:00 +19°C° 0 mm 2 m/s 764 mmHg 42%
    11:00 +20°C° 0 mm 2 m/s 763 mmHg 38%
    12:00 +21°C° 0 mm 2 m/s 763 mmHg 35%
    13:00 +23°C° 0 mm 2 m/s 762 mmHg 31%
    14:00 +22°C° 0 mm 3 m/s 762 mmHg 35%
    15:00 +21°C° 0 mm 3 m/s 762 mmHg 39%
    16:00 +20°C° 0 mm 3 m/s 762 mmHg 43%
    17:00 +19°C° 0 mm 3 m/s 762 mmHg 47%
    18:00 +18°C° 0 mm 3 m/s 762 mmHg 51%
    19:00 +16°C° 0 mm 3 m/s 763 mmHg 54%
    20:00 +16°C° 0 mm 3 m/s 763 mmHg 52%
    21:00 +16°C° 0 mm 3 m/s 763 mmHg 50%
    22:00 +16°C° 0 mm 2 m/s 763 mmHg 48%
    23:00 +16°C° 0 mm 2 m/s 763 mmHg 46%
    Arată mai mult